Weather History for Sacramento, CA

Change the Weather History Date:

Tuesday, November 2, 2010

  Actual Average Record
Temperature  
Mean Temperature 17 °C -  
Max Temperature 24 °C 21 °C 28 °C (1966)
Min Temperature 8 °C 8 °C 1 °C (2002)
Degree Days  
Heating Degree Days 3    
Month to date heating degree days 7  
Cooling Degree Days 0    
Month to date cooling degree days 0  
Year to date cooling degree days 1077  
Growing Degree Days 10 (Base 50)    
Moisture  
Dew Point 10 °C    
Average Humidity 72    
Maximum Humidity 100    
Minimum Humidity 43    
Precipitation  
Precipitation 0.00 mm 1.27 mm 1.78 mm (1968)
Month to date precipitation 0.00 0.10  
Year to date precipitation 14.90 13.29  
Since 1 July precipitation 1.44 1.39  
Snow  
Snow 0.00 cm 0.00 cm - ()
Month to date snowfall 0.0 0.0  
Since 1 July snowfall 0.0 0.0  
Since 1 September snowfall 0.0 0.0  
Snow Depth 0.00 cm    
Sea Level Pressure  
Sea Level Pressure 1024 hPa    
Wind  
Wind Speed 0 km/h (ESE)    
Max Wind Speed 8 km/h    
Max Gust Speed 21 km/h    
Visibility 14 kilometers    
Events      
T = Trace of Precipitation, MM = Missing Value Source: NWS Daily Summary

Daily Weather History Graph

Daily Weather History Graph

Search for Another Location

Airport:

Trip Planner

Search our weather history database for the weather conditions in past years. The results will help you decide how hot, cold, wet, or windy it might be!

Date:

Astronomy

Nov. 02, 2010 Rise Set
Actual Time 7:33 AM PDT 6:04 PM PDT
Civil Twilight 7:06 AM PDT 6:32 PM PDT
Nautical Twilight 6:34 AM PDT 7:03 PM PDT
Astronomical Twilight 6:03 AM PDT 7:34 PM PDT
Moon 3:29 AM PDT (11/2) 3:44 PM PDT (11/2)
Length of Visible Light 11h 26m
Length of Day
10h 31m
Waning Crescent, 16% of the Moon is Illuminated
Nov 2
Waning Crescent
Nov 5
New
Nov 13
First Quarter
Nov 21
Full
Nov 28
Last Quarter

Hourly Weather History & Observations

Time (PDT) Temp. Dew Point Humidity Pressure Visibility Wind Dir Wind Speed Gust Speed Precip Events Conditions
12:53 AM 11.1 °C 9.4 °C 89% 1026.2 hPa 16.1 km Calm Calm - N/A   Clear
1:53 AM 10.6 °C 8.9 °C 89% 1026.2 hPa 16.1 km Calm Calm - N/A   Clear
2:53 AM 9.4 °C 7.8 °C 90% 1026.3 hPa 11.3 km Calm Calm - N/A   Clear
3:53 AM 10.0 °C 8.3 °C 89% 1025.9 hPa 16.1 km Calm Calm - N/A   Clear
4:53 AM 8.9 °C 8.3 °C 96% 1025.7 hPa 16.1 km Calm Calm - N/A   Clear
5:30 AM 9.0 °C 8.0 °C 93% 1025.6 hPa 2.8 km Calm Calm - N/A   Clear
5:44 AM 9.0 °C 8.0 °C 93% 1025.6 hPa 4.8 km Calm Calm - N/A   Clear
5:53 AM 8.9 °C 7.8 °C 93% 1025.7 hPa 6.4 km Calm Calm - N/A   Clear
6:53 AM 8.3 °C 7.2 °C 93% 1025.8 hPa 16.1 km Calm Calm - N/A   Clear
7:53 AM 8.3 °C 7.8 °C 97% 1025.4 hPa 9.7 km Calm Calm - N/A   Clear
8:53 AM 11.7 °C 10.0 °C 89% 1025.8 hPa 16.1 km Calm Calm - N/A   Clear
9:53 AM 14.4 °C 10.6 °C 78% 1025.7 hPa 16.1 km Calm Calm - N/A   Clear
10:53 AM 16.7 °C 11.1 °C 70% 1025.0 hPa 16.1 km Variable 5.6 km/h / 1.5 m/s - N/A   Clear
11:53 AM 19.4 °C 11.1 °C 59% 1024.6 hPa 16.1 km Calm Calm - N/A   Clear
12:53 PM 21.7 °C 11.1 °C 51% 1023.5 hPa 16.1 km Calm Calm - N/A   Clear
1:53 PM 22.2 °C 11.1 °C 49% 1022.4 hPa 16.1 km Calm Calm - N/A   Clear
2:53 PM 23.3 °C 10.6 °C 45% 1021.5 hPa 16.1 km Calm Calm - N/A   Clear
3:53 PM 23.9 °C 10.6 °C 43% 1020.8 hPa 16.1 km Calm Calm - N/A   Clear
4:53 PM 23.9 °C 10.6 °C 43% 1020.5 hPa 16.1 km Calm Calm - N/A   Clear
5:53 PM 20.6 °C 11.7 °C 57% 1020.4 hPa 16.1 km ESE 5.6 km/h / 1.5 m/s - N/A   Clear
6:53 PM 17.2 °C 11.7 °C 70% 1020.7 hPa 16.1 km Calm Calm - N/A   Clear
7:53 PM 16.1 °C 11.7 °C 75% 1020.8 hPa 16.1 km Calm Calm - N/A   Clear
8:53 PM 15.0 °C 11.7 °C 81% 1021.0 hPa 16.1 km Calm Calm - N/A   Clear
9:53 PM 13.9 °C 11.7 °C 87% 1021.2 hPa 16.1 km Calm Calm - N/A   Clear
10:53 PM 13.3 °C 11.1 °C 87% 1021.6 hPa 16.1 km Calm Calm - N/A   Clear
11:53 PM 12.2 °C 11.1 °C 93% 1021.5 hPa 16.1 km Calm Calm - N/A   Clear